• Join FlightAware (Why Join?)
  • Login
  • US Flag 
06:55AM EST


 

Airport Tracker/Info


-or-


 

Live Flight TrackerFlight Track Log ✈ N25EN ✈ 25-Jun-2013 ✈ KMKE - KPTK

Flight Track Log - Related Links

Times and Time Zones

All times are in EDT time to prevent confusion due to time zone crossing. See the N25EN flight status page for this flight to view local times or setup timezone preferences in your user account.

Time Position Orientation Groundspeed Altitude Reporting Facility
EDT Latitude Longitude Course Direction KTS MPH feet Rate Location/Type
10:10AM 42.9500 -87.8167 66° East 190 219 3,500  Level KMKE
10:11AM 42.9581 -87.7828 72° East 185 213 4,200 1,500 Climbing Chicago Center
10:12AM 42.9617 -87.7181 86° East 175 201 5,800 1,740 Climbing Chicago Center
10:13AM 42.9614 -87.6372 90° East 183 211 7,800 1,740 Climbing Chicago Center
10:14AM 42.9550 -87.5644 97° East 191 220 9,500 1,560 Climbing Chicago Center
10:15AM 42.9397 -87.5000 108° East 180 207 11,100 1,440 Climbing Chicago Center
10:16AM 42.9219 -87.4267 108° East 200 230 12,500 1,440 Climbing Chicago Center
10:17AM 42.9078 -87.3561 105° East 189 217 14,100 1,320 Climbing Chicago Center
10:18AM 42.8939 -87.2783 104° East 209 241 15,300 1,200 Climbing Chicago Center
10:19AM 42.8892 -87.1964 94° East 217 250 16,600 1,260 Climbing Chicago Center
10:20AM 42.8831 -87.1158 96° East 215 247 17,900 1,140 Climbing Chicago Center
10:21AM 42.8747 -87.0186 97° East 216 249 19,000 540 Climbing Chicago Center
10:22AM 42.8672 -86.9281 96° East 238 274 19,100  Climbing Chicago Center
10:23AM 42.8600 -86.8286 96° East 259 298 19,100  Level Chicago Center
10:24AM 42.8533 -86.7281 95° East 268 308 19,100  Level Chicago Center
10:25AM 42.8486 -86.6261 94° East 270 311 19,100  Level Chicago Center
10:26AM 42.8442 -86.5222 93° East 274 315 19,100  Level Chicago Center
10:27AM 42.8406 -86.4197 93° East 273 314 19,100 -60 Level Chicago Center
10:28AM 42.8353 -86.2958 93° East 275 316 19,000  Descending Chicago Center
10:29AM 42.8314 -86.1919 93° East 276 318 19,100  Climbing Chicago Center
10:30AM 42.8272 -86.0867 93° East 281 323 19,100 -60 Level Chicago Center
10:31AM 42.8231 -85.9808 93° East 283 326 19,000 -60 Descending Chicago Center
10:32AM 42.8164 -85.8767 95° East 281 323 19,000  Level Chicago Center
10:34AM 42.8083 -85.7792 96° East  Level FlightAware Approximate
10:34AM 42.7944 -85.6478 96° East 279 321 19,100  Level Chicago Center
10:35AM 42.7847 -85.5431 97° East 280 322 19,100 -60 Level Chicago Center
10:36AM 42.7758 -85.4375 97° East 280 322 19,000 -60 Descending Chicago Center
10:37AM 42.7664 -85.3344 97° East 277 319 19,000  Level Chicago Center
10:38AM 42.7572 -85.2314 97° East 276 318 19,000  Level Chicago Center
10:40AM 42.7481 -85.1294 97° East 275 316 19,000 -540 Level Chicago Center
10:41AM 42.7381 -84.9969 96° East 293 337 18,000 -840 Descending Chicago Center
10:42AM 42.7267 -84.8831 98° East 304 350 17,300 -720 Descending Chicago Center
10:43AM 42.7178 -84.7689 96° East 305 351 16,600 -720 Descending Chicago Center
10:44AM 42.7117 -84.6508 94° East 310 357 15,900 -1,320 Descending Chicago Center
10:45AM 42.7642 -84.5547 53° Northeast 318 366 14,000 -1,440 Descending Chicago Center
10:46AM 42.8022 -84.4569 62° Northeast 316 364 13,000 -900 Descending Chicago Center
10:47AM 42.7861 -84.3425 101° East 310 357 12,200 -960 Descending Chicago Center
10:48AM 42.7542 -84.2103 108° East 308 354 11,100 -1,020 Descending Chicago Center
10:48AM 42.7383 -84.1539 111° Southeast 304 350 10,700 -900 Descending Cleveland Center
10:49AM 42.7217 -84.0878 109° East 300 345 10,100 -1,020 Descending Cleveland Center
10:49AM 42.7150 -84.0339 100° East 298 343 9,600 -1,020 Descending Cleveland Center
10:50AM 42.7119 -83.9883 95° East 300 345 9,100 -960 Descending Cleveland Center
10:51AM 42.7069 -83.8778 93° East 300 345 8,200 -1,020 Descending Cleveland Center
10:52AM 42.7103 -83.7567 88° East 295 339 7,100 2,400 Descending Cleveland Center
10:53AM 42.7208 -83.6778 80° East 276 318 13,000  Climbing Cleveland Center
10:54AM 42.7444 -83.5772 72° East 240 276 7,100 -4,020 Descending Cleveland Center
10:54AM 42.7500 -83.5239 82° East 230 265 6,700 -1,020 Descending Cleveland Center
10:55AM 42.7542 -83.4308 86° East 248 285 5,500 -1,140 Descending Cleveland Center
10:57AM 42.7606 -83.3433 84° East 241 277 4,500 -1,020 Descending Cleveland Center
10:58AM 42.7456 -83.2775 107° East 204 235 3,500 -1,020 Descending Cleveland Center
10:59AM 42.7089 -83.3269 225° Southwest 156 180 2,400 -780 Descending Cleveland Center
10:59AM 42.6831 -83.3569 220° Southwest 152 175 2,000 -480 Descending Cleveland Center
11:00AM 42.6658 -83.3872 232° Southwest 110 127 1,600 -480 Descending Cleveland Center
11:02AM 42.6500 -83.4167 210° Southwest  Level FlightAware Approximate
11:09AM 42.6656 -83.4205 210° Southwest  Level Estimated
11:10AM 42.6656 -83.4205 210° Southwest  Level Estimated